THORAD DELTA 1 DEB, 42625

Orbit data source: Space-Track

THORAD DELTA 1 DEB, 42625 is space debris in SSO originally from a launch on Fri, 15 Nov 1974 UTC launched from the Air Force Western Test Range (AFWTR). Debris objects in space refer to the collection of defunct objects orbiting the Earth. Examples of debris include non-operational satellites, rocket bodies, and fragments generated from explosions, collisions, or faulty payload assembly.

Loading next visibility...
THORAD DELTA 1 DEB details
Identifier
42625, 1974-089GS
Orbit
SSO
Last TLE update14 hours ago
Origin
Flag of USGSFC (US)
ManufacturerUnknown
MissionSpacecraft
Bus & MotorUnknown
MassUnknown
Launch date (UTC)
1974-11-15 (50 years ago)
Launch vehicleUnknown
Launch site
Air Force Western Test Range (AFWTR)
Object type
Payload
Rocket body
Debris
Shape & HBRUnknown
Radar Cross SectionSmall (<0.1 m²)

Expand to show TLE details & history

TLE from 14 hours ago
0 THORAD DELTA 1 DEB
1 42625U 74089GS  24360.88652260  .00000252  00000-0  21097-2 0  9999
2 42625 101.9719 329.7061 0002289  66.4760 321.7275 12.44053187480742
Epoch: 2024-12-25T21:16Z
Definitive object data (Epoch: 2024-12-25T21:16:35.552Z)
Latitude27.56096°
Longitude-90.63857°
Altitude1,491.123 km
Speed7.121 km/s
True Right ascension21h 33m 32s
True Declination27° 25' 60"
Sunlit
Object was in daylight at TLE epoch
Visualization TLE readout
Latitude-26.36342°
Longitude90.27829°
Altitude1,500.385 km
Speed7.113 km/s
Apparent Right ascension07h 12m 18s
Apparent Declination-67° 28' 10"
Sunlit
Object is in daylight
Visualization observer readout
Local Sidereal Time11:06:01
Azimuth201.303° SSW
Elevation-26.028°
Doppler factor1
Orbital elements
Apogee altitude1,488.836 km
Perigee altitude1,485.235 km
Semi-major axis7,865.173 km
Eccentricity0.0002289
Inclination101.9719°
RAAN329.7061°
Arg. of periapsis66.476°
True anomaly321.71125°
Mean anomaly321.7275°
Eccentric anomaly321.71938°
Mean motion3.11158 °/min
BSTAR0.0021097
Orbital period115.7 mins
Loading maneuver chart data...

THORAD DELTA 1 DEB Visibility forecast

Observer location: undefined°, undefined

Span
Click to sort rows by Start time (UTC) header in descending order
Start Az.
Max El. time (UTC)
Max El. Az.
Max El.
End time (UTC)
End Az.
11 mins2024-12-26 13:09:37.216Z351.682° N2024-12-26 13:15:37.216Z305.034° NW19.716°2024-12-26 13:20:37.216Z266.939° W
11 mins2024-12-26 20:27:37.216Z103.382° ESE2024-12-26 20:32:37.216Z56.82° ENE26.82°2024-12-26 20:38:37.216Z4.689° NNE
15 mins2024-12-26 22:18:37.216Z176.212° S2024-12-26 22:25:37.216Z255.22° W42.184°2024-12-26 22:33:37.216Z336.16° NNW
14 mins2024-12-27 10:26:37.216Z32.91° NE2024-12-27 10:33:37.216Z110.413° ESE36.83°2024-12-27 10:40:37.216Z172.964° S
|